Location: Allen Lane School
(37.8198°N, 89.7382°W)
Time: 18:30:58
(UTC+00:00)

Cosmos 44 - Pass Details

Date: 08 December 2021
Orbit: 583 x 778 km, 65.1° (Epoch: 16 January)

Event Time Altitude Azimuth Distance (km) Brightness Sun altitude
Rises 12:28:01 0° 204° (SSW) 3,243 6.7 -6.9°
Reaches altitude 10° 12:30:26 10° 203° (SSW) 2,318 6.0 -6.5°
Maximum altitude 12:35:47 77° 119° (ESE) 793 3.8 -5.5°
Drops below altitude 10° 12:41:02 10° 33° (NNE) 2,277 6.1 -4.6°
Sets 12:43:23 0° 32° (NNE) 3,181 6.8 -4.1°
